Regional Weather Roundup
Issued by NWS Nashville, TN

Home | Current Version | Previous Version | Text Only | Print | Product List | Glossary On
Versions: 1 2 3 4 5 6 7 8 9 10 11 12 13 14 15 16 17 18 19 20 21 22 23 24 25 26 27 28 29 30 31 32 33 34 35 36 37 38 39 40 41 42 43 44 45 46 47 48 49 50
000
ASUS44 KOHX 231605
RWROHX
MIDDLE TENNESSEE HOURLY WEATHER ROUNDUP
NATIONAL WEATHER SERVICE NASHVILLE TN
1100 AM CDT WED JUL 23 2014

NOTE: "FAIR" INDICATES FEW OR NO CLOUDS BELOW 12,000 FEET WITH
NO SIGNIFICANT WEATHER AND/OR OBSTRUCTIONS TO VISIBILITY.

* THESE REPORTS ARE NOT UNDER NWS QUALITY CONTROL AND MAY NOT
  REPORT WEATHER SUCH AS PRECIPITATION AND FOG.


TNZ005>011-023>034-057-059-062>066-078-080-231700
...NORTHERN MIDDLE TENNESSEE...

CITY           SKY/WX    TMP DP  RH WIND       PRES   REMARKS
CLARKSVILLE    MOSUNNY   87  71  58 N7        30.09S HX  93
CROSSVILLE     SUNNY     79  69  71 NW7       30.16F
NASHVILLE      PTSUNNY   89  72  56 CALM      30.10S HX  96
SMYRNA         MOSUNNY   91  75  59 CALM      30.09F HX 101
SPARTA         MOSUNNY   86  75  70 CALM      30.11F HX  95
$$
TNZ056-058-060-061-075>077-079-093>097-231700
...SOUTHERN MIDDLE TENNESSEE...

CITY           SKY/WX    TMP DP  RH WIND       PRES   REMARKS
COLUMBIA       SUNNY     88  73  62 CALM      30.08F HX  96
FAYETTEVILLE   MOSUNNY   81  70  69 CALM      30.12S
MCMINNVILLE    MOSUNNY   82  75  78 CALM      30.12F
SHELBYVILLE    MOSUNNY   82  75  78 CALM      30.12F
TULLAHOMA      MOSUNNY   81  72  74 W3        30.14F
WINCHESTER     MOSUNNY   81  72  74 NW5       30.12S
$$


...KEY TO REMARKS...
VSB - VISIBILITY IN MILES
WCI - WIND CHILL INDEX
HX  - HEAT INDEX




USA.gov is the U.S. government's official web portal to all federal, state and local government web resources and services.